Zurück zum Katalog

USA 278

AktivMilitärHEO
NORAD 42941·PAYLOAD·🇺🇸 United States

Gestartet Sep 24, 2017 von Vandenberg Space Force Base

Loading…

Nächste Überflüge (nächste 24 Stunden)

TLE

AktuellSource: Mike McCants

Epoche: Sep 15, 2026, 00:29 UTC

1 42941U 17056A   26258.02050006 -.00000822  00000-0  00000-0 0    01
2 42941  62.9334 135.9820 6843401 268.1452  18.9613  2.00591119  4584

Verfolge USA 278 in Echtzeit mit AllMySat

Download on the App Store